Location: Hains Lake
(37.8540°N, 99.8578°W)
Time: 04:39:17
(UTC+00:00)

Vanguard 2 Rocket - Pass Details

Date: 23 April 2021
Orbit: 553 x 3326 km, 32.9° (Epoch: 07 May)

Event Time Altitude Azimuth Distance (km) Brightness Sun altitude
Rises 19:59:44 0° 251° (WSW) 6,121 11.5 59.0°
Reaches altitude 10° 20:03:17 10° 249° (WSW) 5,394 11.4 58.5°
Maximum altitude 20:20:59 73° 169° (S) 3,388 11.1 56.0°
Drops below altitude 10° 20:40:50 10° 90° (E) 5,947 10.8 52.9°
Sets 20:44:59 0° 89° (E) 6,745 11.0 52.2°
